Flag for Canada Weather past 2 weeks in Strathcona County, Alberta, Canada

Now
56 °F

Refreshingly cool.


Feels Like: 54 °F
Forecast: 47 / 76 °F
Wind: 7 mph from South

Location: Edmonton Municipal

Current Time: May 22, 2015 at 3:07:57 AM

Latest Report: May 22, 2015 at 2:00 AM


Visibility: N/A

Pressure: 29.96 "Hg

Humidity: 33%

Dew point: 27 °F

Location of Strathcona CountyLocation

Historic Weather in Strathcona County — Graph

°F

Strathcona County temperature yesterday

Maximum temperature yesterday: 75 °F (at 6:00 PM)
Minimum temperature yesterday: 49 °F (at 4:00 AM)
Average temperature yesterday: 64 °F

Past Weeks' High & Low Weather Summary

 TemperatureHumidityPressure
High75 °F (May 21, 6:00 PM)99% (May 8, 7:00 AM)30.51 "Hg (May 8, 7:00 AM)
Low30 °F (May 7, 6:00 AM)13% (May 10, 7:00 PM)29.84 "Hg (May 15, 8:00 PM)
Average52 °F39%30.17 "Hg
* Reported May 7 2:00 AM — May 22 2:00 AM, Strathcona County, Weather by CustomWeather, © 2015

Note: Actual official high and low records may vary slightly from our data, if they occured in-between our weather recording intervals... More about our weather records

Advertising

Strathcona County weather history for previous 24 hours

 ConditionsComfort  
Time TempWeatherWind HumidityBarometerVisibility
2:00 AM
Fri, May 22
56 °FRefreshingly cool.7 mph33%29.96 "HgN/A
1:00 AM57 °FRefreshingly cool.6 mph30%29.96 "HgN/A
12:00 AM62 °FRefreshingly cool.9 mph27%29.95 "HgN/A
11:00 PM
Thu, May 21
64 °FMild.8 mph23%29.94 "HgN/A
10:00 PM65 °FMild.6 mph21%29.94 "HgN/A
9:00 PM70 °FMild.8 mph16%29.94 "HgN/A
8:00 PM72 °FMild.12 mph15%29.94 "HgN/A
7:00 PM74 °FMild.13 mph14%29.94 "HgN/A
6:00 PM75 °FMild.13 mph14%29.95 "HgN/A
5:00 PM75 °FMild.10 mph14%29.97 "HgN/A
4:00 PM75 °FMild.13 mph17%29.98 "HgN/A
3:00 PM73 °FMild.10 mph16%30.00 "HgN/A
2:00 PM73 °FMild.12 mph17%30.00 "HgN/A
1:00 PM71 °FMild.13 mph17%30.02 "HgN/A
12:00 PM70 °FMild.13 mph18%30.03 "HgN/A
11:00 AM68 °FMild.14 mph19%30.03 "HgN/A
10:00 AM67 °FMild.12 mph23%30.04 "HgN/A
9:00 AM62 °FRefreshingly cool.8 mph27%30.05 "HgN/A
8:00 AM57 °FRefreshingly cool.12 mph35%30.06 "HgN/A
7:00 AM53 °FCool.9 mph38%30.06 "HgN/A
6:00 AM49 °FCool.9 mph41%30.06 "HgN/A
5:00 AM50 °FCool.7 mph36%30.06 "HgN/A
4:00 AM49 °FCool.5 mph35%30.06 "HgN/A
3:00 AM52 °FCool.6 mph31%30.05 "HgN/A
Weather by CustomWeather, © 2015

See weather overviewHow to use our weather pages